Location: Gauravaram
(16.6995°N, 80.5417°E)
Time: 11:03:44
(UTC+00:00)

Cosmos 2369 Rocket - Pass Details

Date: 03 August 2024
Orbit: 826 x 853 km, 71.0° (Epoch: 14 September)

Event Time Altitude Azimuth Distance (km) Brightness Sun altitude
Rises 14:47:29 0° 211° (SSW) 3,351 5.4 -22.6°
Reaches altitude 10° 14:50:01 10° 218° (SW) 2,420 4.7 -23.1°
Maximum altitude 14:55:15 43° 288° (WNW) 1,148 3.3 -24.2°
Drops below altitude 10° 15:00:31 10° 360° (N) 2,433 4.9 -25.3°
Sets 15:03:05 0° 7° (N) 3,371 5.6 -25.9°
